Notices

What's New in latest Release from April 7th, 2021:

- Updated Glossary, including Speed of Maximum Gust, and Total Hourly Precipitation

- Updated national and regional climate services offices contacts and prices information

- Addition of station inventory lists for 1981-2010, 1971-2000, and 1961-1990 Normals.

If you haven't already, please take our survey and provide feedback about our website: https://eccc.sondage-survey.ca/f/LanguageSelection.aspx?s=442ca660-fcf1-47c0-95a9-59707d6fd709

Hourly Data Report for March 03, 2021

OTTAWA INTL A
ONTARIO
Current Station Operator: NAVCAN

45°19'00.000" N
75°40'00.000" W
114.90 m
6106001
71628
YOW

Download Data

Hourly Data (March 2021)
Hourly Data Report for March 3, 2021
TIME
LST
Temp Definition
°C
Dew Point Definition
°C
Rel Hum Definition
%
Precip. Amount Definition
mm

Wind Dir Definition
10's deg

Wind Spd Definition
km/h
Visibility Definition
km
Stn Press Definition
kPa
Hmdx Definition


Wind Chill Definition


Weather Definition


00:00 -8.0 -9.2 91   17 8 1.0 99.76   -12 Snow
01:00 -7.3 -8.4 92   18 11 6.4 99.67   -12 Snow
02:00 -6.2 -7.4 92   19 12 9.7 99.60   -11 Snow
03:00 -5.6 -6.8 92   20 10 4.8 99.50   -10 Snow
04:00 -5.3 -6.5 92   21 12 16.1 99.47   -10 Snow
05:00 -5.3 -6.3 92   21 10 24.1 99.46   -10 LegendNANA
06:00 -5.0 -6.0 92   21 10 24.1 99.46   -9 LegendNANA
07:00 -4.6 -5.8 91   19 8 24.1 99.50   -8 Cloudy
08:00 -4.1 -5.5 90   21 7 24.1 99.53   -7 LegendNANA
09:00 -3.2 -5.7 83   26 4 24.1 99.57   -5 LegendNANA
10:00 -2.8 -5.5 82   32 9 24.1 99.60   -6 Cloudy
11:00 -1.8 -5.5 76   33 10 24.1 99.58   -5 LegendNANA
12:00 -1.5 -6.1 71   36 3 24.1 99.57   -3 LegendNANA
13:00 -0.8 -5.5 71   30 10 24.1 99.55   -4 Cloudy
14:00 -0.7 -5.5 70   25 14 24.1 99.57   -5 LegendNANA
15:00 -0.6 -5.0 72   27 15 40.2 99.61   -5 LegendNANA
16:00 -0.8 -5.0 74   25 16 24.1 99.67   -6 Cloudy
17:00 -0.8 -5.1 73   29 14 24.1 99.71   -5 LegendNANA
18:00 -1.3 -4.9 77   30 12 24.1 99.74   -5 LegendNANA
19:00 -1.3 -4.8 77   29 14 24.1 99.80   -6 Mostly Cloudy
20:00 -2.0 -4.6 82   30 10 24.1 99.79   -6 LegendNANA
21:00 -2.0 -4.9 80   30 17 24.1 99.81   -7 LegendNANA
22:00 -1.9 -6.6 70   33 17 24.1 99.82   -7 Cloudy
23:00 -2.7 -8.6 64   33 23 24.1 99.87   -9 LegendNANA

Notes on Data Quality.

Legend

  • E = Estimated
  • M = Missing
  • NA = Not Available*
  • [empty] = Indicates an unobserved value
Date modified: